Weather in Ulan Bator

Mongolia     47°55′06″N   106°55′03″E
temp.,
°C
wind,
m/s
gust,
m/s
humid.,
%
clouds,
%
prec.,
mm/h
press.,
hPa
HPBL,
m
13 may, thu
thu1323:00+6se235574 0.0 100956
02:00+4e117236 0.0 100811
05:00+3e218191 0.0 100811
08:00+6ese126256 0.0 1006235
11:00+11w3741100 0.0 10041630
14:00+13wnw5738100 0.1 10012049
17:00+10nnw6752100 0.0 1003850
20:00+7n2361100 0.1 1004538
14 may, fri
fri1423:00+4n3582100 0.6 1009438
02:00+1n4580100 1.3 1012459
05:00−2nnw3664100 0.0 1016316
08:000nnw46445 0.0 1018700
11:00+4nnw56260 0.0 10161448
14:00+7nnw66233 0.0 10141911
17:00+7nnw56260 0.0 10141765
20:00+4nw23380 0.0 101752
15 may, sat
sat1523:00+1n22440 0.0 102113
02:000ene11470 0.0 102110
05:00−1ene11493 0.0 102110
08:00+3sse22335 0.0 1020256
11:00+9sw452617 0.0 10161082
14:00+13wsw68242 0.0 10132000
17:00+14w711259 0.0 10102821
20:00+6n11675 0.3 101423
16 may, sun
sun1623:00+5nw22740 0.0 101614
02:00+3nnw22850 0.0 101820
05:00+2nw11913 0.0 101912
08:00+6w12695 0.0 1018290
11:00+12w46355 0.0 10161258
14:00+16w67260 0.0 10131864
17:00+16w68255 0.0 10102327
20:00+12wsw22388 0.0 101123
17 may, mon
mon1723:00+10sse00425 0.0 101110
02:00+8se11455 0.0 101111
05:00+8sse11475 0.0 101012
08:00+12wsw13355 0.0 1009218
11:00+17w59282 0.0 10072129
14:00+19w892232 0.0 10053281
17:00+19wnw7102244 0.0 10023230
20:00+15nw333558 0.0 100351